Location: Recife
(8.0585°S, 34.8848°W)
Time: 21:27:19
(UTC-03:00)

Vanguard 1 Rocket - Pass Details

Date: 14 April 2026
Orbit: 655 x 4212 km, 34.3° (Epoch: 12 May)

Event Time Altitude Azimuth Distance (km) Brightness Sun altitude
Rises 07:54:51 0° 292° (WNW) 3,499 10.0 36.0°
Reaches altitude 10° 07:57:47 10° 284° (WNW) 2,303 9.2 36.7°
Maximum altitude 08:02:22 38° 214° (SW) 1,005 7.6 37.8°
Drops below altitude 10° 08:06:32 10° 144° (SE) 2,094 9.6 38.8°
Sets 08:09:06 0° 136° (SE) 3,133 10.4 39.4°
